• In Portugal
  • List of Countries
  • For 7 days
  • Water Temperature
  • Satellite Maps
  • Weather Map
  • Weather Widgets
  • user-avatar
    Login

    Hourly Weather Sierpnica

    Today, 23 April, Monday

    Time Temperature Precipitation Wind Pressure Humidity
    00:00 +12°C° 0 mm 2 mps 708 mmHg 74%
    01:00 +12°C° 0 mm 2 mps 708 mmHg 70%
    02:00 +12°C° 0.1 mm 2 mps 708 mmHg 73%
    03:00 +12°C° 0.1 mm 2 mps 707 mmHg 75%
    04:00 +10°C° 0.1 mm 2 mps 707 mmHg 77%
    05:00 +13°C° 0 mm 2 mps 707 mmHg 76%
    06:00 +14°C° 0 mm 2 mps 707 mmHg 76%
    07:00 +15°C° 0 mm 2 mps 708 mmHg 74%
    08:00 +16°C° 0 mm 2 mps 708 mmHg 68%
    09:00 +18°C° 0 mm 2 mps 708 mmHg 63%
    10:00 +20°C° 0 mm 3 mps 708 mmHg 57%
    11:00 +21°C° 0.3 mm 3 mps 708 mmHg 55%
    12:00 +21°C° 0.3 mm 3 mps 708 mmHg 54%
    13:00 +21°C° 0 mm 3 mps 708 mmHg 54%
    14:00 +20°C° 0.6 mm 3 mps 708 mmHg 60%
    15:00 +19°C° 0.6 mm 3 mps 708 mmHg 66%
    16:00 +18°C° 0.6 mm 3 mps 708 mmHg 73%
    17:00 +17°C° 0.2 mm 3 mps 707 mmHg 78%
    18:00 +14°C° 0.2 mm 3 mps 707 mmHg 82%
    19:00 +14°C° 0.2 mm 2 mps 707 mmHg 87%
    20:00 +13°C° 0 mm 2 mps 707 mmHg 89%
    21:00 +13°C° 0 mm 2 mps 708 mmHg 91%
    22:00 +12°C° 0 mm 2 mps 708 mmHg 92%
    23:00 +10°C° 0 mm 2 mps 708 mmHg 93%

    Tomorrow, 24 April, Tuesday

    Time Temperature Precipitation Wind Pressure Humidity
    00:00 +10°C° 0 mm 2 mps 708 mmHg 93%
    01:00 +9°C° 0 mm 2 mps 709 mmHg 93%
    02:00 +9°C° 0 mm 2 mps 709 mmHg 93%
    03:00 +8°C° 0 mm 2 mps 709 mmHg 93%
    04:00 +8°C° 0 mm 2 mps 709 mmHg 93%
    05:00 +9°C° 0 mm 2 mps 709 mmHg 89%
    06:00 +10°C° 0 mm 2 mps 709 mmHg 84%
    07:00 +12°C° 0 mm 2 mps 710 mmHg 80%
    08:00 +12°C° 0 mm 3 mps 710 mmHg 73%
    09:00 +14°C° 0 mm 3 mps 710 mmHg 67%
    10:00 +15°C° 0 mm 4 mps 710 mmHg 60%
    11:00 +17°C° 0 mm 4 mps 710 mmHg 58%
    12:00 +17°C° 0 mm 4 mps 710 mmHg 55%
    13:00 +18°C° 0 mm 4 mps 710 mmHg 53%
    14:00 +17°C° 0 mm 5 mps 709 mmHg 53%
    15:00 +17°C° 0 mm 5 mps 709 mmHg 53%
    16:00 +17°C° 0 mm 5 mps 709 mmHg 53%
    17:00 +17°C° 0 mm 4 mps 709 mmHg 58%
    18:00 +14°C° 0 mm 3 mps 708 mmHg 64%
    19:00 +13°C° 0 mm 2 mps 708 mmHg 70%
    20:00 +12°C° 0 mm 2 mps 708 mmHg 73%
    21:00 +11°C° 0 mm 1 mps 709 mmHg 76%
    22:00 +11°C° 0 mm 1 mps 709 mmHg 79%
    23:00 +10°C° 0 mm 1 mps 709 mmHg 80%

    Day after tomorrow, 25 April, Wednesday

    Time Temperature Precipitation Wind Pressure Humidity
    00:00 +10°C° 0 mm 1 mps 709 mmHg 81%
    01:00 +10°C° 0 mm 1 mps 708 mmHg 83%
    02:00 +10°C° 0 mm 1 mps 708 mmHg 82%
    03:00 +10°C° 0 mm 1 mps 708 mmHg 82%
    04:00 +9°C° 0 mm 2 mps 708 mmHg 82%
    05:00 +10°C° 0 mm 2 mps 708 mmHg 80%
    06:00 +10°C° 0 mm 3 mps 708 mmHg 78%
    07:00 +11°C° 0 mm 4 mps 708 mmHg 76%
    08:00 +13°C° 0 mm 5 mps 708 mmHg 69%
    09:00 +15°C° 0 mm 5 mps 707 mmHg 63%
    10:00 +16°C° 0 mm 6 mps 707 mmHg 56%
    11:00 +17°C° 0 mm 6 mps 707 mmHg 54%
    12:00 +18°C° 0 mm 7 mps 707 mmHg 53%
    13:00 +20°C° 0 mm 7 mps 707 mmHg 51%
    14:00 +20°C° 0 mm 7 mps 706 mmHg 51%
    15:00 +20°C° 0 mm 6 mps 706 mmHg 52%
    16:00 +20°C° 0 mm 6 mps 705 mmHg 53%
    17:00 +17°C° 0.2 mm 6 mps 705 mmHg 59%
    18:00 +16°C° 0.2 mm 5 mps 705 mmHg 65%
    19:00 +14°C° 0.2 mm 4 mps 705 mmHg 71%
    20:00 +13°C° 0 mm 4 mps 705 mmHg 77%
    21:00 +12°C° 0 mm 3 mps 705 mmHg 82%
    22:00 +12°C° 0 mm 2 mps 706 mmHg 87%
    23:00 +10°C° 0 mm 3 mps 706 mmHg 88%

    26 April, Thursday

    Time Temperature Precipitation Wind Pressure Humidity
    00:00 +9°C° 0 mm 3 mps 706 mmHg 90%
    01:00 +9°C° 0 mm 3 mps 706 mmHg 91%
    02:00 +8°C° 0 mm 3 mps 706 mmHg 91%
    03:00 +8°C° 0 mm 3 mps 706 mmHg 92%
    04:00 +7°C° 0 mm 3 mps 707 mmHg 92%
    05:00 +7°C° 0 mm 4 mps 707 mmHg 87%
    06:00 +8°C° 0 mm 5 mps 707 mmHg 83%
    07:00 +8°C° 0 mm 5 mps 708 mmHg 78%
    08:00 +9°C° 0 mm 5 mps 708 mmHg 71%
    09:00 +10°C° 0 mm 5 mps 708 mmHg 64%
    10:00 +11°C° 0 mm 6 mps 709 mmHg 57%
    11:00 +13°C° 0 mm 6 mps 708 mmHg 54%
    12:00 +13°C° 0 mm 6 mps 708 mmHg 51%
    13:00 +14°C° 0 mm 6 mps 708 mmHg 48%
    14:00 +13°C° 0 mm 6 mps 708 mmHg 49%
    15:00 +13°C° 0 mm 5 mps 708 mmHg 50%
    16:00 +12°C° 0 mm 5 mps 708 mmHg 52%
    17:00 +11°C° 0 mm 4 mps 709 mmHg 55%
    18:00 +8°C° 0 mm 4 mps 709 mmHg 59%
    19:00 +8°C° 0 mm 3 mps 709 mmHg 62%
    20:00 +7°C° 0 mm 3 mps 709 mmHg 65%
    21:00 +6°C° 0 mm 2 mps 710 mmHg 68%
    22:00 +5°C° 0 mm 2 mps 710 mmHg 71%
    23:00 +4°C° 0 mm 2 mps 710 mmHg 71%

    27 April, Friday

    Time Temperature Precipitation Wind Pressure Humidity
    00:00 +4°C° 0 mm 2 mps 710 mmHg 72%
    01:00 +4°C° 0 mm 2 mps 710 mmHg 72%
    02:00 +3°C° 0 mm 2 mps 710 mmHg 73%
    03:00 +3°C° 0 mm 2 mps 710 mmHg 74%
    04:00 +4°C° 0 mm 1 mps 710 mmHg 74%
    05:00 +5°C° 0 mm 1 mps 710 mmHg 71%
    06:00 +6°C° 0 mm 1 mps 711 mmHg 68%
    07:00 +8°C° 0 mm 1 mps 711 mmHg 65%
    08:00 +9°C° 0 mm 1 mps 711 mmHg 59%
    09:00 +10°C° 0 mm 2 mps 711 mmHg 53%
    10:00 +13°C° 0 mm 2 mps 712 mmHg 47%
    11:00 +13°C° 0 mm 2 mps 711 mmHg 45%
    12:00 +14°C° 0 mm 2 mps 711 mmHg 43%
    13:00 +14°C° 0 mm 2 mps 711 mmHg 42%
    14:00 +15°C° 0 mm 2 mps 710 mmHg 42%
    15:00 +15°C° 0 mm 2 mps 710 mmHg 43%
    16:00 +15°C° 0 mm 2 mps 710 mmHg 43%
    17:00 +13°C° 0 mm 2 mps 709 mmHg 51%
    18:00 +12°C° 0 mm 2 mps 709 mmHg 59%
    19:00 +9°C° 0 mm 2 mps 708 mmHg 67%
    20:00 +8°C° 0 mm 2 mps 708 mmHg 67%
    21:00 +8°C° 0 mm 2 mps 708 mmHg 68%
    22:00 +7°C° 0 mm 2 mps 708 mmHg 68%
    23:00 +7°C° 0 mm 2 mps 708 mmHg 69%

    28 April, Saturday

    Time Temperature Precipitation Wind Pressure Humidity
    00:00 +6°C° 0 mm 2 mps 707 mmHg 69%
    01:00 +6°C° 0 mm 2 mps 707 mmHg 69%
    02:00 +6°C° 0 mm 2 mps 707 mmHg 70%
    03:00 +6°C° 0 mm 2 mps 706 mmHg 71%
    04:00 +6°C° 0 mm 2 mps 706 mmHg 73%
    05:00 +7°C° 0 mm 3 mps 706 mmHg 72%
    06:00 +9°C° 0 mm 3 mps 706 mmHg 71%
    07:00 +11°C° 0 mm 4 mps 707 mmHg 70%
    08:00 +12°C° 0 mm 4 mps 707 mmHg 67%
    09:00 +14°C° 0 mm 4 mps 707 mmHg 64%
    10:00 +16°C° 0 mm 5 mps 707 mmHg 61%
    11:00 +18°C° 0 mm 4 mps 707 mmHg 59%
    12:00 +19°C° 0 mm 4 mps 707 mmHg 58%
    13:00 +20°C° 0 mm 4 mps 707 mmHg 56%
    14:00 +20°C° 0 mm 3 mps 707 mmHg 57%
    15:00 +20°C° 0 mm 3 mps 706 mmHg 58%
    16:00 +20°C° 0 mm 2 mps 706 mmHg 58%
    17:00 +18°C° 0 mm 2 mps 706 mmHg 65%
    18:00 +17°C° 0 mm 2 mps 706 mmHg 72%
    19:00 +15°C° 0 mm 1 mps 705 mmHg 78%
    20:00 +15°C° 0.2 mm 1 mps 705 mmHg 81%
    21:00 +14°C° 0.2 mm 1 mps 705 mmHg 84%
    22:00 +13°C° 0.2 mm 1 mps 705 mmHg 87%
    23:00 +13°C° 0.1 mm 1 mps 705 mmHg 88%
    Show more